Stündliche Wetter Oldebroek

Heute, 1 Oktober, Donnerstag

Zeit Temperatur Niederschläge Wind Luftdruck Luftfeuchtigkeit
00:00 +14°C° 0 mm 5 m/S 754 mmHg 91%
01:00 +14°C° 0 mm 5 m/S 753 mmHg 91%
02:00 +14°C° 0 mm 4 m/S 752 mmHg 91%
03:00 +13°C° 0 mm 4 m/S 752 mmHg 91%
04:00 +13°C° 0 mm 5 m/S 751 mmHg 91%
05:00 +13°C° 0 mm 5 m/S 751 mmHg 91%
06:00 +12°C° 0 mm 5 m/S 751 mmHg 91%
07:00 +13°C° 0 mm 5 m/S 750 mmHg 88%
08:00 +14°C° 0 mm 5 m/S 749 mmHg 85%
09:00 +15°C° 0 mm 6 m/S 749 mmHg 83%
10:00 +15°C° 0.2 mm 6 m/S 748 mmHg 83%
11:00 +15°C° 0.2 mm 6 m/S 748 mmHg 83%
12:00 +15°C° 0.2 mm 6 m/S 748 mmHg 84%
13:00 +15°C° 0.6 mm 6 m/S 747 mmHg 86%
14:00 +14°C° 0.6 mm 6 m/S 747 mmHg 89%
15:00 +14°C° 0.6 mm 7 m/S 747 mmHg 92%
16:00 +13°C° 0.5 mm 6 m/S 747 mmHg 92%
17:00 +13°C° 0.5 mm 5 m/S 747 mmHg 92%
18:00 +12°C° 0.5 mm 4 m/S 747 mmHg 92%
19:00 +12°C° 0 mm 4 m/S 748 mmHg 93%
20:00 +11°C° 0 mm 4 m/S 748 mmHg 94%
21:00 +10°C° 0 mm 4 m/S 748 mmHg 95%
22:00 +10°C° 0 mm 3 m/S 748 mmHg 95%
23:00 +9°C° 0 mm 3 m/S 748 mmHg 95%

Morgen, 2 Oktober, Freitag

Zeit Temperatur Niederschläge Wind Luftdruck Luftfeuchtigkeit
00:00 +9°C° 0 mm 3 m/S 748 mmHg 95%
01:00 +9°C° 0 mm 3 m/S 748 mmHg 94%
02:00 +8°C° 0 mm 2 m/S 747 mmHg 94%
03:00 +8°C° 0 mm 2 m/S 747 mmHg 93%
04:00 +8°C° 0 mm 3 m/S 747 mmHg 94%
05:00 +8°C° 0 mm 3 m/S 747 mmHg 94%
06:00 +8°C° 0 mm 3 m/S 747 mmHg 95%
07:00 +8°C° 0 mm 4 m/S 747 mmHg 90%
08:00 +11°C° 0 mm 4 m/S 747 mmHg 86%
09:00 +13°C° 0 mm 5 m/S 747 mmHg 81%
10:00 +14°C° 0 mm 5 m/S 746 mmHg 76%
11:00 +15°C° 0 mm 6 m/S 746 mmHg 71%
12:00 +16°C° 0 mm 6 m/S 746 mmHg 67%
13:00 +16°C° 0 mm 6 m/S 746 mmHg 69%
14:00 +16°C° 0 mm 5 m/S 745 mmHg 70%
15:00 +16°C° 0 mm 5 m/S 745 mmHg 72%
16:00 +16°C° 0 mm 5 m/S 745 mmHg 74%
17:00 +15°C° 0 mm 5 m/S 745 mmHg 75%
18:00 +14°C° 0 mm 5 m/S 745 mmHg 76%
19:00 +14°C° 0 mm 6 m/S 745 mmHg 78%
20:00 +14°C° 0 mm 6 m/S 744 mmHg 80%
21:00 +14°C° 0 mm 6 m/S 744 mmHg 81%
22:00 +14°C° 0 mm 7 m/S 744 mmHg 84%
23:00 +12°C° 0 mm 7 m/S 743 mmHg 87%

übermorgen, 3 Oktober, Samstag

Zeit Temperatur Niederschläge Wind Luftdruck Luftfeuchtigkeit
00:00 +12°C° 0 mm 7 m/S 743 mmHg 90%
01:00 +11°C° 0 mm 7 m/S 742 mmHg 90%
02:00 +11°C° 0 mm 7 m/S 742 mmHg 89%
03:00 +11°C° 0 mm 8 m/S 741 mmHg 88%
04:00 +11°C° 0 mm 7 m/S 741 mmHg 87%
05:00 +12°C° 0 mm 7 m/S 741 mmHg 86%
06:00 +13°C° 0 mm 6 m/S 740 mmHg 84%
07:00 +13°C° 0 mm 6 m/S 740 mmHg 84%
08:00 +14°C° 0 mm 6 m/S 740 mmHg 84%
09:00 +14°C° 0 mm 5 m/S 740 mmHg 84%
10:00 +15°C° 0 mm 5 m/S 740 mmHg 82%
11:00 +16°C° 0 mm 5 m/S 739 mmHg 80%
12:00 +16°C° 0 mm 5 m/S 739 mmHg 77%
13:00 +15°C° 0.3 mm 5 m/S 739 mmHg 82%
14:00 +14°C° 0.3 mm 6 m/S 739 mmHg 86%
15:00 +11°C° 0.3 mm 6 m/S 739 mmHg 90%
16:00 +12°C° 0.1 mm 5 m/S 739 mmHg 91%
17:00 +11°C° 0.1 mm 4 m/S 739 mmHg 91%
18:00 +11°C° 0.1 mm 4 m/S 739 mmHg 92%
19:00 +11°C° 0 mm 4 m/S 739 mmHg 90%
20:00 +9°C° 0 mm 5 m/S 739 mmHg 88%
21:00 +9°C° 0 mm 5 m/S 739 mmHg 86%
22:00 +9°C° 0 mm 5 m/S 738 mmHg 85%
23:00 +9°C° 0 mm 6 m/S 738 mmHg 84%

4 Oktober, Sonntag

Zeit Temperatur Niederschläge Wind Luftdruck Luftfeuchtigkeit
00:00 +9°C° 0 mm 6 m/S 738 mmHg 83%
01:00 +9°C° 0.1 mm 6 m/S 737 mmHg 82%
02:00 +10°C° 0.1 mm 6 m/S 736 mmHg 81%
03:00 +10°C° 0.1 mm 6 m/S 736 mmHg 80%
04:00 +10°C° 0.1 mm 6 m/S 736 mmHg 83%
05:00 +10°C° 0.1 mm 6 m/S 736 mmHg 85%
06:00 +10°C° 0.1 mm 6 m/S 735 mmHg 88%
07:00 +9°C° 0.7 mm 8 m/S 736 mmHg 88%
08:00 +8°C° 0.7 mm 9 m/S 737 mmHg 88%
09:00 +8°C° 0.7 mm 10 m/S 737 mmHg 87%
10:00 +9°C° 0.2 mm 10 m/S 738 mmHg 84%
11:00 +9°C° 0.2 mm 10 m/S 739 mmHg 80%
12:00 +9°C° 0.2 mm 11 m/S 741 mmHg 76%
13:00 +11°C° 0 mm 10 m/S 741 mmHg 73%
14:00 +12°C° 0 mm 9 m/S 741 mmHg 69%
15:00 +13°C° 0 mm 8 m/S 742 mmHg 65%
16:00 +12°C° 0 mm 8 m/S 742 mmHg 68%
17:00 +11°C° 0 mm 7 m/S 743 mmHg 70%
18:00 +11°C° 0 mm 7 m/S 743 mmHg 73%
19:00 +10°C° 0 mm 7 m/S 743 mmHg 74%
20:00 +10°C° 0 mm 7 m/S 744 mmHg 75%
21:00 +10°C° 0 mm 7 m/S 744 mmHg 75%
22:00 +10°C° 0 mm 7 m/S 744 mmHg 76%
23:00 +10°C° 0 mm 7 m/S 744 mmHg 77%

5 Oktober, Montag

Zeit Temperatur Niederschläge Wind Luftdruck Luftfeuchtigkeit
00:00 +10°C° 0 mm 7 m/S 745 mmHg 77%
01:00 +10°C° 0 mm 7 m/S 745 mmHg 77%
02:00 +10°C° 0 mm 7 m/S 745 mmHg 77%
03:00 +10°C° 0 mm 7 m/S 745 mmHg 77%
04:00 +9°C° 0 mm 7 m/S 745 mmHg 76%
05:00 +9°C° 0 mm 7 m/S 746 mmHg 75%
06:00 +9°C° 0 mm 7 m/S 746 mmHg 74%
07:00 +10°C° 0 mm 7 m/S 746 mmHg 73%
08:00 +10°C° 0 mm 8 m/S 746 mmHg 71%
09:00 +11°C° 0 mm 8 m/S 746 mmHg 70%
10:00 +11°C° 0 mm 8 m/S 746 mmHg 69%
11:00 +12°C° 0 mm 8 m/S 745 mmHg 67%
12:00 +12°C° 0 mm 8 m/S 745 mmHg 66%
13:00 +11°C° 0.3 mm 8 m/S 745 mmHg 71%
14:00 +11°C° 0.3 mm 8 m/S 744 mmHg 76%
15:00 +10°C° 0.3 mm 8 m/S 743 mmHg 81%
16:00 +10°C° 0.9 mm 8 m/S 743 mmHg 85%
17:00 +10°C° 0.9 mm 8 m/S 743 mmHg 89%
18:00 +10°C° 0.9 mm 7 m/S 742 mmHg 93%
19:00 +10°C° 0.5 mm 8 m/S 742 mmHg 91%
20:00 +11°C° 0.5 mm 8 m/S 743 mmHg 89%
21:00 +11°C° 0.5 mm 8 m/S 743 mmHg 88%
22:00 +11°C° 0.1 mm 8 m/S 743 mmHg 88%
23:00 +11°C° 0.1 mm 8 m/S 744 mmHg 89%

6 Oktober, Dienstag

Zeit Temperatur Niederschläge Wind Luftdruck Luftfeuchtigkeit
00:00 +11°C° 0.1 mm 8 m/S 744 mmHg 90%
01:00 +11°C° 0.1 mm 7 m/S 745 mmHg 90%
02:00 +11°C° 0.1 mm 7 m/S 745 mmHg 90%
03:00 +11°C° 0.1 mm 7 m/S 746 mmHg 90%
04:00 +11°C° 0.2 mm 7 m/S 746 mmHg 90%
05:00 +11°C° 0.2 mm 7 m/S 747 mmHg 90%
06:00 +11°C° 0.2 mm 7 m/S 747 mmHg 90%
07:00 +11°C° 0.3 mm 7 m/S 748 mmHg 87%
08:00 +12°C° 0.3 mm 7 m/S 749 mmHg 85%
09:00 +12°C° 0.3 mm 7 m/S 749 mmHg 83%
10:00 +14°C° 0.4 mm 7 m/S 749 mmHg 81%
11:00 +14°C° 0.4 mm 7 m/S 750 mmHg 79%
12:00 +13°C° 0.4 mm 8 m/S 750 mmHg 77%
13:00 +14°C° 0.3 mm 7 m/S 751 mmHg 78%
14:00 +14°C° 0.3 mm 6 m/S 751 mmHg 79%
15:00 +14°C° 0.3 mm 5 m/S 751 mmHg 80%
16:00 +13°C° 0.1 mm 5 m/S 752 mmHg 84%
17:00 +11°C° 0.1 mm 4 m/S 752 mmHg 87%
18:00 +10°C° 0.1 mm 4 m/S 752 mmHg 90%
19:00 +10°C° 0 mm 4 m/S 752 mmHg 91%
20:00 +8°C° 0 mm 4 m/S 753 mmHg 92%
21:00 +8°C° 0 mm 4 m/S 753 mmHg 93%
22:00 +8°C° 0 mm 4 m/S 753 mmHg 94%
23:00 +8°C° 0 mm 4 m/S 753 mmHg 95%
Mehr zeigen

We Need Your Consent

Meteoprog and our Service Providers may store and access personal data such as cookies, device identifiers or other similar technologies on your device and process such data to personalise content and ads, as well as provide social media features and to analyse the traffic.

  • Store and/or access information on your device

    Cookies, device identifiers or other information can be stored or accessed on your device for the purposes indicated above.

  • Personalised ads and content, ad and content measurement, audience insights, and products development

    Ads and content can be personalised based on a profile. More data can be added to better personalise ads and content. Ad and content performance can be measured. Insights about the audience who saw the ads and content can be derived. Such data can be used to develop or improve user’s experience, systems and software.

By clicking ‘I Agree’ you will allow the use of indicated cookies, device identifiers, web beacons or other similar technologies. Your settings can be changed in the browser on your device.

For certain purposes, legitimate interests may be relied on, rather than consent. You can read more about this in our Privacy and Cookie Policy.